TimeEST,TemperatureF,Dew PointF,Humidity,Sea Level PressureIn,VisibilityMPH,Wind Direction,Wind SpeedMPH,Gust SpeedMPH,PrecipitationIn,Events,Conditions,WindDirDegrees,DateUTC
12:13 AM,24.8,15.8,69,30.13,10.0,Calm,Calm,-,N/A,,Overcast,0,2013-12-31 05:13:00
12:25 AM,24.8,15.8,69,30.13,10.0,Calm,Calm,-,N/A,,Overcast,0,2013-12-31 05:25:00
12:53 AM,24.1,17.1,75,30.16,10.0,Calm,Calm,-,N/A,,Overcast,0,2013-12-31 05:53:00
1:53 AM,24.1,18.0,77,30.14,10.0,SSW,5.8,-,0.00,,Overcast,200,2013-12-31 06:53:00
2:53 AM,25.0,16.0,69,30.15,6.0,WSW,6.9,-,0.00,Snow,Light Snow,250,2013-12-31 07:53:00
3:53 AM,24.1,18.0,77,30.15,3.0,WSW,5.8,-,0.00,Snow,Light Snow,250,2013-12-31 08:53:00
4:16 AM,24.8,17.6,74,30.10,4.0,WSW,4.6,-,0.00,Snow,Light Snow,250,2013-12-31 09:16:00
4:34 AM,24.8,17.6,74,30.09,5.0,WSW,5.8,-,0.00,Snow,Light Snow,250,2013-12-31 09:34:00
4:53 AM,24.1,17.1,75,30.14,5.0,SW,10.4,-,0.00,Snow,Light Snow,230,2013-12-31 09:53:00
5:21 AM,24.8,17.6,74,30.09,2.0,SW,6.9,-,0.00,Snow,Light Snow,230,2013-12-31 10:21:00
5:31 AM,24.8,17.6,74,30.09,2.5,SW,5.8,-,0.00,Snow,Light Snow,220,2013-12-31 10:31:00
5:38 AM,24.8,17.6,74,30.09,4.0,Variable,5.8,-,0.00,Snow,Light Snow,0,2013-12-31 10:38:00
5:48 AM,24.8,17.6,74,30.08,8.0,SSW,5.8,-,0.00,,Overcast,210,2013-12-31 10:48:00
5:53 AM,24.1,17.1,75,30.13,9.0,SW,5.8,-,0.00,,Overcast,230,2013-12-31 10:53:00
6:53 AM,24.1,14.0,65,30.14,10.0,WSW,9.2,-,N/A,,Overcast,240,2013-12-31 11:53:00
7:53 AM,24.1,15.1,69,30.14,9.0,WSW,9.2,-,0.00,,Overcast,250,2013-12-31 12:53:00
8:29 AM,24.8,15.8,69,30.12,8.0,WSW,8.1,19.6,0.00,Snow,Light Snow,250,2013-12-31 13:29:00
8:53 AM,24.1,15.1,69,30.18,4.0,West,10.4,17.3,0.00,Snow,Light Snow,260,2013-12-31 13:53:00
8:58 AM,24.8,15.8,69,30.15,1.8,West,11.5,18.4,0.00,Snow,Light Snow,270,2013-12-31 13:58:00
9:09 AM,24.8,15.8,69,30.16,3.0,West,13.8,18.4,0.00,Snow,Light Snow,270,2013-12-31 14:09:00
9:20 AM,23.0,15.8,74,30.17,1.8,West,9.2,-,0.00,Snow,Light Snow,280,2013-12-31 14:20:00
9:37 AM,21.2,14.0,74,30.19,3.0,West,13.8,18.4,0.00,Snow,Light Snow,280,2013-12-31 14:37:00
9:53 AM,21.9,12.9,68,30.24,9.0,WNW,8.1,20.7,0.00,,Overcast,290,2013-12-31 14:53:00
10:02 AM,21.2,12.2,68,30.20,5.0,West,6.9,16.1,0.00,Snow,Light Snow,280,2013-12-31 15:02:00
10:38 AM,21.2,14.0,74,30.24,2.5,WNW,11.5,19.6,0.00,Snow,Light Snow,290,2013-12-31 15:38:00
10:53 AM,21.0,12.9,71,30.29,1.8,West,15.0,25.3,0.00,Snow,Light Snow,280,2013-12-31 15:53:00
10:56 AM,21.2,12.2,68,30.24,3.0,West,10.4,25.3,0.00,Snow,Light Snow,280,2013-12-31 15:56:00
11:09 AM,21.2,10.4,63,30.25,10.0,West,17.3,24.2,0.00,,Overcast,270,2013-12-31 16:09:00
11:53 AM,21.9,10.0,60,30.31,10.0,West,15.0,23.0,0.00,,Overcast,270,2013-12-31 16:53:00
12:53 PM,21.9,10.9,63,30.32,4.0,West,11.5,25.3,0.00,Snow,Light Snow,270,2013-12-31 17:53:00
1:53 PM,23.0,10.0,58,30.34,10.0,West,15.0,23.0,0.00,,Overcast,270,2013-12-31 18:53:00
2:53 PM,21.9,10.0,60,30.34,10.0,West,11.5,25.3,N/A,,Mostly Cloudy,270,2013-12-31 19:53:00
3:53 PM,23.0,10.9,60,30.33,10.0,Variable,5.8,-,N/A,,Scattered Clouds,0,2013-12-31 20:53:00
4:53 PM,23.0,12.0,63,30.34,10.0,WSW,5.8,-,N/A,,Clear,250,2013-12-31 21:53:00
5:53 PM,23.0,12.9,65,30.34,10.0,WSW,4.6,-,N/A,,Clear,250,2013-12-31 22:53:00
6:53 PM,23.0,12.9,65,30.33,10.0,Calm,Calm,-,N/A,,Clear,0,2013-12-31 23:53:00
7:53 PM,21.9,14.0,72,30.35,10.0,Calm,Calm,-,N/A,,Scattered Clouds,0,2014-01-01 00:53:00
8:53 PM,25.0,15.1,66,30.34,10.0,Calm,Calm,-,N/A,,Overcast,0,2014-01-01 01:53:00
9:53 PM,26.1,16.0,66,30.33,10.0,Calm,Calm,-,N/A,,Overcast,0,2014-01-01 02:53:00
10:53 PM,26.1,17.1,69,30.33,10.0,Calm,Calm,-,N/A,,Overcast,0,2014-01-01 03:53:00
11:53 PM,27.0,17.1,66,30.33,10.0,Variable,3.5,-,N/A,,Overcast,0,2014-01-01 04:53:00